Skip Page Navigation
NASA JPL Caltech
NASA Logo - Jet Propulsion Laboratory + View the NASA Portal
+ Center for Near-Earth Object Studies
JPL Home Earth Solar System Stars & Galaxies Technology
JPL Solar System Dynamics
BODIES ORBITS EPHEMERIDES TOOLS PHYSICAL DATA DISCOVERY FAQ SITE MAP
JPL Small-Body Database Browser
Search: [ help ]  
227984 (2007 JX1)
Classification: Main-belt Asteroid          SPK-ID: 2227984
Ephemeris | Orbit Diagram | Orbital Elements | Mission Design | Physical Parameters | Discovery Circumstances | Close-Approach Data ]

[ show orbit diagram ]
Orbital Elements at Epoch 2459200.5 (2020-Dec-17.0) TDB
Reference: JPL 17 (heliocentric ecliptic J2000)
 Element Value Uncertainty (1-sigma)   Units 
e .1097412255622788 4.5218e-08  
a 3.069517500940371 3.4677e-08 au
q 2.732664888502311 1.2776e-07 au
i 11.41298502722522 5.9781e-06 deg
node 64.61894159153594 3.1676e-05 deg
peri 224.9456120149871 4.8856e-05 deg
M 140.1147326641177 3.9516e-05 deg
tp 2458435.986956461887
(2018-Nov-13.48695646)
0.00021322 TDB
period 1964.280917792478
5.38
3.3287e-05
9.113e-08
d
yr
n .1832731747985312 3.1058e-09 deg/d
Q 3.406370113378431 3.8483e-08 au
  Orbit Determination Parameters
   # obs. used (total)      336  
   data-arc span      7255 days (19.86 yr)  
   first obs. used      2001-03-23  
   last obs. used      2021-02-01  
   planetary ephem.      DE441  
   SB-pert. ephem.      SB441-N16  
   condition code      0  
   norm. resid. RMS      .5729  
   source      ORB  
   producer      Otto Matic  
   solution date      2021-Apr-14 00:41:54  

Additional Information
 Earth MOID = 1.72832 au 
 Jupiter MOID = 1.75086 au 
 T_jup = 3.192 
[ show covariance matrix ]

Ephemeris | Orbit Diagram | Orbital Elements | Mission Design | Physical Parameters | Discovery Circumstances | Close-Approach Data ]

Physical Parameter Table
Parameter Symbol Value Units Sigma Reference Notes
absolute magnitude H 15.17   n/a MPCxxxxx  

227984 (2007 JX1)          Discovered 2007-May-07 by CSS at Catalina
Reference: 20091202/Numbers.arcLast Updated: 2009-12-04

[ hide close-approach data ]
Close-Approach Data   ...sorted by Date/Time (TDB)
Date/Time (TDB) Time Uncertainty
(days_HH:MM)
Body Nominal Distance (au) Minimum Distance (au) Maximum Distance (au) V-relative (km/s) V-infinity (km/s) JD (TDB) Time Uncertainty (minutes) Semi-major axis (km) Semi-minor axis (km) range-LOV angle (deg) N-sigma BP Orbit Ref. Reference Modified
1919-Apr-29 02:22 00:05 Jupiter 1.92976272651208 1.92976020947218 1.92976524357216 2.92823079113588 2.77428983860236 2422077.598286247 5.22696551176096 346.880288405286 11.7579818895452 -67.000650686229 2892720.48485824 T 17 CATAB v2.0f-lin.ifort 2021-Apr-14 00:41:55 2021-Apr-14 00:41
1929-Jan-16 04:30 00:05 Jupiter 1.83261930351186 1.83261772079989 1.83262088623373 3.76084396355799 3.635871661627 2425627.687529605 4.49838292221513 261.18470052654 32.2366891213621 -74.9379172452514 1824138.27782287 T 17 CATAB v2.0f-lin.ifort 2021-Apr-14 00:41:55 2021-Apr-14 00:41
1978-May-13 07:01 00:02 Jupiter 1.87285549667897 1.87285434990198 1.87285664346043 3.01583932759368 2.86195066940014 2443641.792438719 2.02080154758462 165.508777716255 11.3941788077282 -69.4380941563815 2804701.45526806 T 17 CATAB v2.0f-lin.ifort 2021-Apr-14 00:41:55 2021-Apr-14 00:41
1988-Feb-03 14:27 00:01 Jupiter 1.89228559922066 1.89228473139471 1.89228646704983 3.88146781861919 3.76437975377196 2447195.102161588 1.45270768666822 184.891279347226 25.731522570224 -80.316658815435 2062543.49435809 T 17 CATAB v2.0f-lin.ifort 2021-Apr-14 00:41:55 2021-Apr-14 00:41
2037-May-27 18:37 00:01 Jupiter 1.8269911600503 1.82699065464547 1.82699166545617 3.13355423407183 2.98193392676491 2465206.275459933 1.19650833821774 109.465951599038 10.8461153519814 -78.9636150044173 2369758.76426941 T 17 CATAB v2.0f-lin.ifort 2021-Apr-14 00:41:55 2021-Apr-14 00:41
2047-Feb-20 23:28 00:02 Jupiter 1.9600925646669 1.96009148447953 1.9600936448584 4.02740464962566 3.91863756217221 2468762.477626740 1.66220073768045 192.554435177057 28.8519657942066 -77.5788839096646 2060742.53683544 T 17 CATAB v2.0f-lin.ifort 2021-Apr-14 00:41:55 2021-Apr-14 00:41
2096-Jun-13 10:40 00:04 Jupiter 1.7957442432798 1.79574348361999 1.79574500295289 3.26611450326712 3.11835492122297 2486772.944366041 4.2666369294982 289.847424299354 11.2204020610242 -80.6700775946788 2301768.84979455 T 17 CATAB v2.0f-lin.ifort 2021-Apr-14 00:41:55 2021-Apr-14 00:41
2155-Jul-04 23:58 00:07 Jupiter 1.7804230290495 1.78042236167518 1.78042369644629 3.40460494890788 3.26187833896542 2508342.498531399 7.29773905662498 430.88538320357 14.8590137467162 -83.9733744003057 2191798.92256517 T 17 CATAB v2.0f-lin.ifort 2021-Apr-14 00:41:55 2021-Apr-14 00:41
Ephemeris | Orbit Diagram | Orbital Elements | Mission Design | Physical Parameters | Discovery Circumstances | Close-Approach Data ]
ABOUT SSD CREDITS/AWARDS PRIVACY/COPYRIGHT GLOSSARY LINKS
FirstGov 2021-May-15 00:09 UT
(server date/time)  
NASA Home Page
Site Manager:   Ryan S. Park
Webmaster  Alan B. Chamberlin